Location: ??????
(38.3184°N, 23.6932°E)
Time: 02:31:20
(UTC+00:00)

Cosmos 2227 Rocket - Pass Details

Date: 16 October 2021
Orbit: 839 x 845 km, 71.0° (Epoch: 04 December)

Event Time Altitude Azimuth Distance (km) Brightness Sun altitude
Rises 16:01:50 0° 341° (NNW) 3,410 5.5 -3.9°
Reaches altitude 10° 16:04:20 10° 344° (NNW) 2,471 4.7 -4.4°
Maximum altitude 16:09:56 61° 65° (ENE) 952 2.3 -5.5°
Drops below altitude 10° 16:15:31 10° 146° (SE) 2,454 4.4 -6.6°
Sets 16:17:59 0° 149° (SSE) 3,384 5.1 -7.1°
